Location: Seattle
(47.6064°N, 122.3308°W)
Time: 01:04:03
(UTC-08:00)

Tiros 1 - Pass Details

Date: 28 November 2020
Orbit: 630 x 663 km, 48.4° (Epoch: 28 January)

Event Time Altitude Azimuth Distance (km) Brightness Sun altitude
Rises 19:57:23 0° 284° (WNW) 2,987 11.6 -35.7°
Reaches altitude 10° 19:59:45 10° 283° (WNW) 2,070 10.5 -36.1°
Enters shadow 20:01:15 20° 280° (W) 1,504 9.6 -36.4°
Maximum altitude 20:04:30 70° 200° (SSW) 697 - -36.9°
Drops below altitude 10° 20:09:11 10° 117° (ESE) 2,043 - -37.7°
Sets 20:11:30 0° 116° (ESE) 2,946 - -38.1°
